Miscellaneous Local Product
Issued by NWS Hastings, NE

Home | Current Version | Previous Version | Graphics & Text | Print | Product List | Glossary On
Versions: 1 2 3 4 5 6 7 8 9 10 11 12 13 14 15 16 17 18 19 20 21 22 23 24 25 26 27 28 29 30 31 32 33 34 35 36 37 38 39 40 41 42 43 44 45 46 47 48 49 50
000
AXUS43 KGID 230802
MISGRI

GID CWA HOURLY WEATHER ROUNDUP
NATIONAL WEATHER SERVICE HASTINGS NE
300 AM CDT THU MAR 23 2017

NOTE: "FAIR" INDICATES FEW OR NO CLOUDS BELOW 12,000 FEET WITH NO
SIGNIFICANT WEATHER AND/OR OBSTRUCTIONS TO VISIBILITY.

...SOUTH CENTRAL NEBRASKA...

CITY           SKY/WX    TMP DP  RH WIND       PRES   REMARKS
GRAND ISLAND   MOCLDY    47  29  49 SE15G22   29.99F
HASTINGS       CLOUDY    48  28  46 SE13      29.99F
KEARNEY        CLOUDY    45  27  49 SE12      29.96F
ORD            PTCLDY    45  27  49 SE10      29.95F
YORK           CLOUDY    48  28  46 SE12      30.02F
AURORA         CLOUDY    47  28  47 SE13      29.99F
LEXINGTON      MOCLDY    44  32  63 SE12      29.93F
HOLDREGE       CLOUDY    43  30  58 SE9       29.94F
HEBRON         CLOUDY    49  30  47 SE10      30.02F

...NEBRASKA PANHANDLE...

CITY           SKY/WX    TMP DP  RH WIND       PRES   REMARKS
CHADRON        MOCLDY    48  36  63 SE13      29.71S
ALLIANCE       CLOUDY    42  33  70 S16       29.77F
SCOTTSBLUFF    CLOUDY    47  36  65 E15       29.75F
SIDNEY         CLOUDY    39  33  79 SE10      29.78F WCI  32

...WESTERN AND NORTH CENTRAL NEBRASKA...

CITY           SKY/WX    TMP DP  RH WIND       PRES   REMARKS
VALENTINE      PTCLDY    43  28  55 S15       29.85F
AINSWORTH      PTCLDY    42  32  67 S17       29.87F
ONEILL         CLOUDY    45  32  60 S9        29.93F
BROKEN BOW     CLOUDY    44  32  62 S13       29.92F
IMPERIAL       CLOUDY    40  35  83 SE14      29.83F WCI  32
NORTH PLATTE   CLOUDY    43  35  73 SE12      29.88F
MCCOOK         CLOUDY    44  37  76 SE12      29.89F

...EASTERN NEBRASKA...

CITY           SKY/WX    TMP DP  RH WIND       PRES   REMARKS
NORFOLK        CLOUDY    47  26  44 SE17G26   30.00F
SO SIOUX CITY  CLOUDY    42  27  55 SE12      30.08F
TEKAMAH        CLOUDY    44  24  45 SE16      30.09F
COLUMBUS       CLOUDY    46  27  46 SE13      30.04F
ALBION         CLOUDY    50  27  41 SE15      29.99F
OMAHA EPPLEY   CLOUDY    45  22  40 SE16      30.10F
OFFUTT AFB     CLOUDY    45  22  41 E12       30.10F
MILLARD        CLOUDY    47  28  46 SE8       30.09F
LINCOLN        CLOUDY    49  27  42 SE16      30.07F
NEBRASKA CITY  CLOUDY    47  16  29 SE12      30.10F
BEATRICE       CLOUDY    51  29  43 SE15      30.04F
FALLS CITY     CLOUDY    50  25  37 SE9       30.11F

...NORTHERN KANSAS...

CITY           SKY/WX    TMP DP  RH WIND       PRES   REMARKS
GOODLAND       CLOUDY    44  40  85 S23       29.83F
HILL CITY      MOCLDY    45  38  76 SE9       29.93F
NORTON         SUNNY     45  30  57 SE13      29.91F
PHILLIPSBURG   PTCLDY    48  34  57 E12       29.95F
HAYS             N/A     49  40  71 SE14      29.94F
RUSSELL        CLOUDY    50  39  66 SE17G23   29.94F
CONCORDIA      CLOUDY    51  33  50 SE13      30.01F
SALINA         CLOUDY    54  43  66 SE16      30.02S
TOPEKA         CLOUDY    53  34  48 E12       30.10F



USA.gov is the U.S. government's official web portal to all federal, state and local government web resources and services.